Weather History for Cairns, QU

Change the Weather History Date:

Wednesday, July 11, 2012

  Actual Average Record
Temperature  
Mean Temperature 74 °F -  
Max Temperature 78 °F 79 °F 82 °F (2010)
Min Temperature 70 °F 63 °F 50 °F (2007)
Cooling Degree Days 9    
Growing Degree Days 24 (Base 50)    
Moisture  
Dew Point 65 °F    
Average Humidity 74    
Maximum Humidity 83    
Minimum Humidity 58    
Precipitation  
Precipitation 0.00 in 0.03 in - ()
Sea Level Pressure  
Sea Level Pressure 29.96 in    
Wind  
Wind Speed 16 mph ()    
Max Wind Speed 22 mph    
Max Gust Speed 32 mph    
Visibility 7.3 miles    
Events Rain    
Averages and records for this station are not official NWS values.
T = Trace of Precipitation, MM = Missing Value Source: Averaged Metar Reports

Daily Weather History Graph

Daily Weather History Graph

Search for Another Location

Airport:

Trip Planner

Search our weather history database for the weather conditions in past years. The results will help you decide how hot, cold, wet, or windy it might be!

Date:

Astronomy

Jul. 11, 2012 Rise Set
Actual Time 6:47 AM AEST 5:58 PM AEST
Civil Twilight 6:23 AM AEST 6:21 PM AEST
Nautical Twilight 5:56 AM AEST 6:48 PM AEST
Astronomical Twilight 5:30 AM AEST 7:14 PM AEST
Moon No Moon Rise 11:51 AM AEST (7/11)
Length of Visible Light 11h 57m
Length of Day
11h 11m
Waning Gibbous, 50% of the Moon is Illuminated
Jul 11
Waning Gibbous
Jul 19
New
Jul 26
First Quarter
Aug 2
Full
Aug 10
Last Quarter

Hourly Weather History & Observations

Time (AEST) Temp. Dew Point Humidity Pressure Visibility Wind Dir Wind Speed Gust Speed Precip Events Conditions
12:00 AM 72 °F 64 °F 68% 29.97 in - South 20.7 mph - -  
12:00 AM 71.6 °F 64.4 °F 78% 29.95 in 6.2 mi South 20.7 mph - N/A   Scattered Clouds
12:04 AM 71.6 °F 64.4 °F 78% 29.95 in 6.2 mi South 19.6 mph 31.1 mph N/A   Scattered Clouds
12:30 AM 71.6 °F 64.4 °F 78% 29.95 in 6.2 mi South 19.6 mph - N/A   Mostly Cloudy
1:00 AM 72 °F 63 °F 67% 29.97 in - South 19.6 mph - -  
1:00 AM 71.6 °F 62.6 °F 73% 29.95 in 6.2 mi South 19.6 mph - N/A   Mostly Cloudy
1:30 AM 71.6 °F 64.4 °F 78% 29.95 in 6.2 mi South 20.7 mph - N/A Rain Light Rain Showers
1:38 AM 71.6 °F 64.4 °F 78% 29.95 in 6.2 mi South 19.6 mph 32.2 mph N/A Rain Light Rain Showers
2:00 AM 71.6 °F 64.4 °F 78% 29.95 in 6.2 mi South 18.4 mph - N/A   Mostly Cloudy
2:30 AM 71.6 °F 64.4 °F 78% 29.95 in 6.2 mi South 19.6 mph - N/A   Mostly Cloudy
3:00 AM 72 °F 64 °F 68% 29.95 in - South 20.7 mph - -   Overcast
3:00 AM 71.6 °F 64.4 °F 78% 29.95 in 6.2 mi South 20.7 mph - N/A Rain Light Rain Showers
3:17 AM 71.6 °F 64.4 °F 78% 29.95 in 6.2 mi South 19.6 mph 31.1 mph N/A   Mostly Cloudy
3:30 AM 71.6 °F 64.4 °F 78% 29.95 in 6.2 mi South 19.6 mph - N/A   Mostly Cloudy
4:00 AM 72 °F 64 °F 68% 29.96 in - South 21.9 mph - -  
4:00 AM 71.6 °F 64.4 °F 78% 29.95 in 6.2 mi South 21.9 mph - N/A   Mostly Cloudy
4:30 AM 71.6 °F 64.4 °F 78% 29.95 in 6.2 mi SSE 20.7 mph - N/A   Mostly Cloudy
5:00 AM 71.6 °F 64.4 °F 78% 29.95 in 6.2 mi South 19.6 mph - N/A   Mostly Cloudy
5:30 AM 71.6 °F 64.4 °F 78% 29.95 in 6.2 mi South 18.4 mph - N/A   Scattered Clouds
6:00 AM 71 °F 64 °F 73% 29.97 in 16 mi South 18.4 mph - -   Partly Cloudy
6:00 AM 71.6 °F 64.4 °F 78% 29.95 in 6.2 mi South 18.4 mph - N/A   Mostly Cloudy
6:30 AM 71.6 °F 64.4 °F 78% 29.98 in 6.2 mi South 17.3 mph - N/A   Mostly Cloudy
7:00 AM 71 °F 64 °F 74% 29.99 in - SSE 19.6 mph - -  
7:00 AM 71.6 °F 64.4 °F 78% 29.98 in 6.2 mi SSE 19.6 mph - N/A   Mostly Cloudy
7:30 AM 71.6 °F 64.4 °F 78% 29.98 in 6.2 mi SSE 19.6 mph - N/A   Mostly Cloudy
8:00 AM 71.6 °F 64.4 °F 78% 30.01 in 6.2 mi SSE 17.3 mph - N/A   Mostly Cloudy
8:30 AM 71.6 °F 64.4 °F 78% 30.01 in 6.2 mi SSE 18.4 mph - N/A   Mostly Cloudy
9:00 AM 73 °F 65 °F 68% 30.03 in 19 mi SSE 18.4 mph - -   Partly Cloudy
9:00 AM 73.4 °F 64.4 °F 73% 30.04 in 6.2 mi SSE 18.4 mph - N/A   Mostly Cloudy
9:30 AM 73.4 °F 64.4 °F 73% 30.01 in 6.2 mi SSE 18.4 mph - N/A   Mostly Cloudy
10:00 AM 75 °F 65 °F 62% 30.04 in - SSE 15.0 mph - -  
10:00 AM 75.2 °F 64.4 °F 69% 30.01 in 6.2 mi SSE 15.0 mph - N/A   Mostly Cloudy
10:30 AM 75.2 °F 64.4 °F 69% 30.01 in 6.2 mi SSE 17.3 mph - N/A   Mostly Cloudy
11:00 AM 75.2 °F 64.4 °F 69% 30.01 in 6.2 mi SSE 16.1 mph - N/A   Mostly Cloudy
11:30 AM 75.2 °F 64.4 °F 69% 29.98 in 6.2 mi SSE 19.6 mph - N/A   Mostly Cloudy
12:00 PM 76 °F 64 °F 59% 29.99 in 19 mi South 17.3 mph - -   Partly Cloudy
12:00 PM 77.0 °F 64.4 °F 65% 29.98 in 6.2 mi South 17.3 mph - N/A   Mostly Cloudy
12:30 PM 77.0 °F 66.2 °F 69% 29.98 in 6.2 mi South 15.0 mph - N/A   Mostly Cloudy
1:00 PM 76 °F 65 °F 61% 29.97 in - South 13.8 mph - -  
1:00 PM 77.0 °F 64.4 °F 65% 29.95 in 6.2 mi South 13.8 mph - N/A   Mostly Cloudy
1:30 PM 77.0 °F 66.2 °F 69% 29.95 in 6.2 mi South 16.1 mph - N/A   Mostly Cloudy
2:00 PM 77.0 °F 64.4 °F 65% 29.92 in 6.2 mi SSE 17.3 mph - N/A   Mostly Cloudy
2:30 PM 78.8 °F 66.2 °F 65% 29.92 in 6.2 mi SSE 16.1 mph - N/A   Mostly Cloudy
3:00 PM 78 °F 66 °F 58% 29.92 in 19 mi SSE 17.3 mph - -   Partly Cloudy
3:00 PM 77.0 °F 66.2 °F 69% 29.92 in 6.2 mi SSE 17.3 mph - N/A   Mostly Cloudy
3:30 PM 77.0 °F 66.2 °F 69% 29.92 in 6.2 mi SSE 13.8 mph - N/A   Mostly Cloudy
4:00 PM 77 °F 66 °F 61% 29.92 in - SSE 13.8 mph - -  
4:00 PM 77.0 °F 66.2 °F 69% 29.92 in 6.2 mi SSE 13.8 mph - N/A   Mostly Cloudy
4:30 PM 75.2 °F 66.2 °F 73% 29.92 in 6.2 mi South 13.8 mph - N/A   Mostly Cloudy
5:00 PM 75.2 °F 66.2 °F 73% 29.92 in 6.2 mi South 12.7 mph - N/A   Mostly Cloudy
5:30 PM 73.4 °F 66.2 °F 78% 29.92 in 6.2 mi South 15.0 mph - N/A   Scattered Clouds
6:00 PM 74 °F 66 °F 69% 29.93 in 19 mi SSE 10.4 mph - -   Partly Cloudy
6:00 PM 73.4 °F 66.2 °F 78% 29.92 in 6.2 mi SSE 10.4 mph - N/A   Scattered Clouds
6:30 PM 73.4 °F 66.2 °F 78% 29.92 in 6.2 mi South 10.4 mph - N/A   Scattered Clouds
7:00 PM 73 °F 66 °F 73% 29.95 in - South 9.2 mph - -  
7:00 PM 73.4 °F 66.2 °F 78% 29.95 in 6.2 mi South 9.2 mph - N/A   Scattered Clouds
7:30 PM 71.6 °F 66.2 °F 83% 29.95 in 6.2 mi South 10.4 mph - N/A   Scattered Clouds
8:00 PM 71.6 °F 66.2 °F 83% 29.95 in 6.2 mi South 10.4 mph - N/A   Mostly Cloudy
8:30 PM 71.6 °F 66.2 °F 83% 29.95 in 6.2 mi South 9.2 mph - N/A   Mostly Cloudy
9:00 PM 71.6 °F 66.2 °F 83% 29.98 in 6.2 mi South 10.4 mph - N/A   Mostly Cloudy
9:30 PM 71.6 °F 66.2 °F 83% 29.98 in 6.2 mi South 8.1 mph - N/A   Mostly Cloudy
10:00 PM 72 °F 66 °F 77% 29.99 in - South 9.2 mph - -  
10:00 PM 71.6 °F 66.2 °F 83% 29.98 in 6.2 mi South 9.2 mph - N/A   Mostly Cloudy
10:30 PM 71.6 °F 66.2 °F 83% 29.98 in 6.2 mi South 10.4 mph - N/A   Mostly Cloudy
11:00 PM 71.6 °F 66.2 °F 83% 29.98 in 6.2 mi South 10.4 mph - N/A   Scattered Clouds
11:30 PM 71.6 °F 66.2 °F 83% 29.98 in 6.2 mi SSE 8.1 mph - N/A   Scattered Clouds